Regional Weather Roundup
Issued by NWS

Home | Current Version | Previous Version | Graphics & Text | Print | Product List | Glossary On
Versions: 1 2 3 4 5 6 7 8 9 10 11 12 13 14 15 16 17 18 19 20 21 22 23 24 25 26 27 28 29 30 31 32 33 34 35 36 37 38 39 40 41 42 43 44 45 46 47 48 49 50
000
ASUS43 KMPX 221501
RWRMN
WEATHER ROUNDUP FOR MINNESOTA
NATIONAL WEATHER SERVICE TWIN CITIES/CHANHASSEN MN
1000 AM CDT FRI SEP 22 2017


NOTE: "FAIR" INDICATES FEW OR NO CLOUDS BELOW 12,000 FEET WITH NO
SIGNIFICANT WEATHER AND/OR OBSTRUCTIONS TO VISIBILITY. N/A MEANS
CURRENT SKY AND/OR WEATHER CONDITIONS ARE NOT AVAILABLE.

MNZ060>063-068>070-221600-
   Twin Cities Metro

CITY           SKY/WX    TMP DP  RH WIND       PRES   REMARKS
TWIN CITIES    PTSUNNY   79  72  79 S8        29.85S
ST PAUL        PTSUNNY   78  72  81 SE10      29.85S
CRYSTAL        CLOUDY    78  68  71 NE5       29.85R
BLAINE         PTSUNNY   79  72  78 E6        29.86R
LAKEVILLE      CLOUDY    77  70  78 S8        29.86S
EDEN PRAIRIE   MOSUNNY   79  71  76 S12       29.83S
SOUTH ST PAUL  CLOUDY    79  70  74 S8        29.85S
LAKE ELMO      FAIR      77  72  83 S7        29.87S
$$
MNZ001>005-007-008-013>017-022>024-027-028-221600-
   Northwest Minnesota

CITY           SKY/WX    TMP DP  RH WIND       PRES   REMARKS
BEMIDJI        CLOUDY    70  67  92 SE5       29.83R
HALLOCK          N/A     63  54  72 N12       29.83F
ROSEAU         SUNNY     63  55  77 N13       29.83S
WARROAD        CLOUDY    61  55  82 NE8       29.84R
CROOKSTON      SUNNY     64  55  72 NE9       29.79F
FOSSTON        CLOUDY    64  63  94 NE5       29.80S FOG
DETROIT LAKES  PTSUNNY   72  63  73 SE10      29.80R
MOORHEAD       MOSUNNY   72  66  83 N5        29.74F
PARK RAPIDS    CLOUDY    71  65  81 SE12      29.80F
MAHNOMEN       CLOUDY    70  68  94 E6        29.78S
$$
MNZ006-009>011-018-025>026-221600-
   North Central Minnesota

CITY           SKY/WX    TMP DP  RH WIND       PRES   REMARKS
BAUDETTE       CLOUDY    64  62  93 N8        29.83R
FLAG ISLAND    CLOUDY    61  54  77 N10       29.81S
INTL FALLS     PTSUNNY   67  62  84 NE6       29.83R
WASKISH        CLOUDY    66  64  94 SE5       29.84R
BIG FORK       CLOUDY    72  66  83 S5        29.86R
LONGVILLE      CLOUDY    66  64  94 CALM      29.82F
GRAND RAPIDS   CLOUDY    68  63  84 SE8       29.85F
CRANE LAKE     CLOUDY    64  63  94 CALM      29.84R
ORR            CLOUDY    64  61  88 CALM      29.81R
COOK           CLOUDY    66  63  88 W5        29.87R
WALKER         FAIR      68  64  86 E5        29.82F
$$
MNZ012-019>021-037-221600-
   Northeast Minnesota

CITY           SKY/WX    TMP DP  RH WIND       PRES   REMARKS
DULUTH         CLOUDY    65  63  93 E12       29.85F
ELY            CLOUDY    66  59  77 CALM      29.78R
HIBBING        CLOUDY    66  60  81 VRB3      29.85R
EVELETH        CLOUDY    66  58  74 S13G24    29.87R
DULUTH HARBOR  TSTM      64  63  94 NE22      29.79F
SILVER BAY     CLOUDY    66  63  88 S13G18    29.87F
GRAND MARAIS     N/A     63  63 100 S3        29.89F
G MARAIS ARPRT   N/A     63  57  82 SW7       29.96R
$$
MNZ029>031-032-039>041-046>048-054>057-064-221600-
   West Central Minnesota

CITY           SKY/WX    TMP DP  RH WIND       PRES   REMARKS
FERGUS FALLS   SUNNY     73  66  78 SE10      29.73F
WHEATON        CLOUDY    75  70  83 E13       29.74S
MORRIS         CLOUDY    77  73  88 SE10G16   29.75R
ALEXANDRIA     CLOUDY    75  70  84 SE13      29.79F
ELBOW LAKE     CLOUDY    73  70  90 E13       29.75F
WADENA         SUNNY     70  70 100 SE10      29.80S
GLENWOOD       SUNNY     75  72  88 SE12      29.80S
APPLETON       MOSUNNY   77  72  83 E9        29.74R
BENSON         MOSUNNY   79  72  78 SE13      29.77S
ORTONVILLE     MOSUNNY   75  72  88 NE14G20   29.73S
MADISON        SUNNY     79  79 100 E9        29.73S
WILLMAR        PTSUNNY   75  73  94 E10       29.80S
$$
MNZ033>034-036-042>043-049>051-058-059-221600-
   Central Minnesota

CITY           SKY/WX    TMP DP  RH WIND       PRES   REMARKS
ST CLOUD       LGT RAIN  70  70 100 SE8       29.84S
SAUK CENTRE    CLOUDY    74  71  89 E10       29.81S
PAYNESVILLE    CLOUDY    74  71  92 E8        29.82S
AITKIN         CLOUDY    66  64  94 SE7       29.83R
PINE RIVER     CLOUDY    64  63  94 SE7       29.85F
BRAINERD       CLOUDY    68  65  90 SE9       29.83R
STAPLES        CLOUDY    68  68 100 SE3       29.81S
LITTLE FALLS   CLOUDY    72  64  78 SE13      29.81S
LITCHFIELD     CLOUDY    75  73  94 E8        29.84R
BUFFALO        CLOUDY    74  71  89 E6        29.85S FOG
MAPLE LAKE     CLOUDY    73  72  96 E3        29.85S FOG
HUTCHINSON     CLOUDY    78  74  87 SE3       29.84R
$$
MNZ037-044-045-052-053-221600-
   East Central Minnesota

CITY           SKY/WX    TMP DP  RH WIND       PRES   REMARKS
PRINCETON      CLOUDY    72  70  94 SE5       29.86F
MORA           CLOUDY    64  64 100 SE5       29.87F
CAMBRIDGE      LGT RAIN  73  70  88 E6        29.87S
RUSH CITY      CLOUDY    70  68  94 E6        29.86F
MOOSE LAKE     LGT RAIN  64  63  94 CALM      29.85F
HINCKLEY       LGT RAIN  68  68 100 E12       29.84F
CLOQUET        CLOUDY    66  63  88 E6        29.84F
MCGREGOR       CLOUDY    66  63  88 SE7       29.85R
$$
MNZ071>073-080-081-089-090-097-098-221600-
   Southwest Minnesota

CITY           SKY/WX    TMP DP  RH WIND       PRES   REMARKS
MONTEVIDEO     MOSUNNY   79  73  83 S9        29.75S
GRANITE FALLS  MOSUNNY   80  73  78 SE7       29.77S
CANBY          MOSUNNY   80  72  76 E5        29.75R
MARSHALL       MOSUNNY   81  72  74 S23G30    29.72S
REDWOOD FALLS  CLOUDY    80  72  76 S13       29.77R
OLIVIA         CLOUDY    73  70  88 SE5       29.78S
PIPESTONE      SUNNY     79  72  78 S17G25    29.77S
WORTHINGTON    SUNNY     78  70  76 S15G22    29.81R
JACKSON        SUNNY     79  70  73 S16G22    29.84R
TRACY          MOSUNNY   80  72  77 S17G25    29.77R
SLAYTON        MOSUNNY   78  69  73 S16G23    29.80R
$$
MNZ065>067-074>077-082>085-091>093-221600-
   South Central Minnesota

CITY           SKY/WX    TMP DP  RH WIND       PRES   REMARKS
MANKATO        CLOUDY    78  71  79 S14G21    29.84R
NEW ULM        SUNNY     81  70  69 S15G23    29.81R
ST JAMES         N/A     81  70  69 S18G25    29.82S
FAIRMONT       CLOUDY    79  71  76 S18       29.84S
GLENCOE        CLOUDY    83  75  78 SE6       29.83R HX  90
FARIBAULT      MOSUNNY   77  70  78 S12G18    29.87S
OWATONNA       CLOUDY    79  70  73 SE17      29.88S
WASECA         CLOUDY    77  68  73 S13G18    29.88S
ALBERT LEA     SUNNY     81  72  74 S15G22    29.89S
$$
MNZ078>079-086>088-094>096-221600-
   Southeast Minnesota

CITY           SKY/WX    TMP DP  RH WIND       PRES   REMARKS
ROCHESTER      SUNNY     80  70  71 S17G26    29.93S
RED WING       CLOUDY    81  68  65 SE7       29.86F
STANTON        MOSUNNY   80  71  73 S13       29.85S
DODGE CENTER   SUNNY     81  68  65 S21G26    29.90S
WINONA         SUNNY     81  68  65 S7        29.92S
AUSTIN         SUNNY     79  70  73 S14       29.92S
PRESTON        SUNNY     78  69  72 S12       29.95S
$$
ABBREVIATIONS USED IN REMARKS
   TC - TEMPERATURES IN CELSIUS
  WCI - WIND CHILL INDEX
   HX - HEAT INDEX
  VSB - VISIBILITY
$$




USA.gov is the U.S. government's official web portal to all federal, state and local government web resources and services.